Voltar ao catálogo

FENGYUN 1C DEB

AtivoPO
NORAD 30171·DEBRIS·🇨🇳 China

Lançado May 10, 1999 de Taiyuan Satellite Launch Center

Loading…

Próximas Passagens (próximas 24 horas)

TLE

AtualizadoSource: Space-Track

Época: Sep 14, 2026, 01:09 UTC

1 30171U 99025UC  26257.04850358  .00000503  00000-0  33683-3 0  9996
2 30171  98.3738  95.8320 0184179 216.0341 142.8293 13.97026667  1069

Acompanhe FENGYUN 1C DEB em tempo real com AllMySat

Download on the App Store